Location: M.A.R.S.Observatory
(35.4031°N, 81.5481°W)
Time: 03:22:16
(UTC-04:00)

Daily predictions for brighter satellites

Satellite Brightness Start Highest point End
(mag) Time Altitude Azimuth Time Altitude Azimuth Time Altitude Azimuth
Cosmos 2369 Rocket 3.0 00:11:23 46° NNE 00:11:23 46° NNE 00:15:18 10° NNE
Lacrosse 5 3.4 00:10:52 31° WNW 00:11:48 33° NW 00:16:24 10° NNE
Cosmos 1821 Rocket 4.3 00:17:02 60° WNW 00:17:02 60° WNW 00:22:41 10° N
Cosmos 1605 Rocket 4.4 00:18:36 57° NNE 00:18:36 57° NNE 00:23:41 10° N
Cosmos 1934 Rocket 4.4 00:26:34 55° NW 00:26:34 55° NW 00:31:34 10° N
Cosmos 2285 Rocket 4.5 00:29:54 56° NW 00:29:54 56° NW 00:35:40 10° N
Cosmos 1943 Rocket 3.7 00:40:43 29° NNE 00:40:43 29° NNE 00:43:24 10° NNE
NOSS 3-1 (A) 4.3 00:49:44 10° NW 00:56:27 61° W 00:56:27 61° W
ATLAS 3B CENTAUR R/B 4.4 01:18:30 53° SE 01:18:30 53° SE 01:39:16 10° E
ATLAS 2AS CENTAUR R/B 3.1 01:10:40 10° NNW 01:18:13 69° NNE 01:18:13 69° NNE
CZ-2C R/B 4.1 01:52:59 10° N 01:55:54 33° N 01:55:54 33° N
Cosmos 2227 Rocket 3.7 02:07:29 10° N 02:12:07 31° NE 02:12:07 31° NE
SeaSat 1 4.2 02:14:59 27° NE 02:14:59 27° NE 02:18:25 10° N
Cosmos 1943 Rocket 4.4 02:22:13 15° NW 02:22:13 15° NW 02:25:20 10° NNW
Cosmos 2297 Rocket 3.6 02:28:23 10° N 02:33:26 32° ENE 02:33:38 32° ENE
Cosmos 1898 Rocket 4.5 02:49:53 10° N 02:53:57 45° NNE 02:53:57 45° NNE
ATLAS CENTAUR R/B 3.1 02:58:09 38° NNE 02:58:09 38° NNE 03:01:17 10° NNE
Cosmos 2034 Rocket 4.4 02:58:39 54° E 02:58:39 54° E 03:04:26 10° NNE
Cosmos 1656 4.2 03:03:53 56° NE 03:03:53 56° NE 03:08:24 10° NNE
Cosmos 1937 Rocket 4.5 02:58:16 10° N 03:02:42 43° NE 03:02:42 43° NE
CZ-2D R/B 4.0 03:11:17 10° NE 03:15:22 21° E 03:16:18 20° ESE
SL-16 R/B 4.2 03:13:59 12° ESE 03:18:42 29° ENE 03:23:51 10° N
IRAS Rocket 4.4 03:16:17 10° NNE 03:21:29 71° ENE 03:21:29 71° ENE
ARIANE 5 R/B 3.7 03:19:37 10° NNE 03:24:17 34° E 03:24:27 34° ESE
Milstar 3 Cent rocket 3.7 03:33:20 24° ESE 03:33:20 24° ESE 03:36:12 10° ESE
Cosmos 1697 Rocket 2.7 03:37:28 76° NNW 03:37:28 76° NNW 03:42:50 10° NNE
ADEOS 3.6 03:35:19 10° NNE 03:40:16 78° NE 03:40:16 78° NE
Cosmos 1464 Rocket 4.4 03:41:25 47° WNW 03:41:25 47° WNW 03:47:13 10° N
Cosmos 1953 3.8 03:44:28 33° ENE 03:44:28 33° ENE 03:47:46 10° NNE
Cosmos 1980 Rocket 2.1 03:46:20 73° SE 03:46:33 74° ESE 03:52:13 10° NNE
Spot 4 Rocket 4.0 03:41:58 10° NNE 03:47:02 83° ENE 03:47:02 83° ENE
Resurs 1-4 Rocket 2.8 03:42:53 10° NNE 03:47:54 44° E 03:48:51 40° SE
BREEZE-M R/B 4.1 03:43:42 10° NW 03:49:55 89° SW 03:57:02 10° SE
SeaSat 1 4.4 03:54:47 17° NW 03:54:47 17° NW 03:56:01 10° NW
Cosmos 1076 Rocket 4.0 03:49:03 10° N 03:52:47 58° NE 03:52:47 58° NE
Cosmos 2227 Rocket 3.8 03:51:30 10° NW 03:53:53 22° WNW 03:53:53 22° WNW
IRS-1D 3.6 03:51:33 10° NNE 03:56:30 65° ESE 03:56:57 62° SE
Cosmos 1092 Rocket 4.2 03:51:49 10° N 03:58:06 70° E 04:00:54 35° SSE
Cosmos 2322 Rocket 3.4 03:58:01 27° SE 03:59:52 34° ESE 04:04:53 10° NE
Cosmos 990 Rocket 4.0 03:58:39 10° NNW 04:03:26 63° WNW 04:03:26 63° WNW
USA 161 4.5 04:16:46 11° NNW 04:16:46 11° NNW 04:16:55 10° NNW
Cosmos 1743 Rocket 4.4 04:10:32 10° N 04:14:44 47° E 04:16:36 29° SE
Cosmos 2297 Rocket 3.5 04:12:29 10° NW 04:15:22 24° WNW 04:15:22 24° WNW
UNK 3.8 04:17:20 48° SSE 04:18:37 81° ENE 04:23:19 10° N
Cosmos-2242 2.8 04:19:53 78° W 04:19:53 78° W 04:24:11 10° N
Cosmos 1378 4.5 04:16:37 10° NNW 04:18:49 31° NW 04:18:49 31° NW
Aureole 1 Rocket 4.4 04:18:20 32° SSE 04:21:04 61° ESE 04:28:20 10° NNE
Cosmos 371 Rocket 4.1 04:20:31 32° SSE 04:22:11 46° ESE 04:26:47 10° NNE
SL-24 R/B - RUBIN 2 4.2 04:23:41 48° SSW 04:25:23 84° ESE 04:31:41 10° NNE
Cosmos 783 Rocket 4.5 04:25:12 48° S 04:26:43 85° ESE 04:32:04 10° NNE
RESURS DK-1 3.9 04:23:02 10° N 04:26:53 36° ENE 04:30:42 10° SE
Cosmos 2142 Rocket 4.3 04:24:38 41° SSW 04:26:57 81° W 04:33:06 10° N
USA 81 4.3 04:25:53 29° SSE 04:28:35 66° E 04:33:49 10° N
Cosmos 1437 3.1 04:26:11 10° N 04:29:22 65° ENE 04:29:22 65° ENE
GPS 2-04 Rocket1 2.6 04:30:01 76° SSE 04:30:01 76° SSE 04:33:47 10° ESE
Cosmos 1470 3.7 04:29:40 30° SE 04:31:08 44° E 04:34:55 10° NNE
Okean O Rocket 2.7 04:28:19 10° NNE 04:32:30 40° E 04:34:58 21° SSE
NOSS 3-4 (A) 4.1 04:26:01 10° NW 04:32:41 44° WSW 04:36:03 28° SSW
NOSS 3-4 (C) 4.1 04:26:07 10° NW 04:32:50 45° WSW 04:36:32 26° SSW
Cosmos 2279 Rocket 4.2 04:30:20 22° S 04:34:30 70° E 04:40:44 10° NNE
Cosmos 1408 Rocket 4.1 04:30:25 10° NNW 04:34:07 40° WNW 04:34:07 40° WNW
SL-16 R/B 2.4 04:32:02 32° S 04:34:37 67° ESE 04:40:16 10° NNE
ERS-2 4.2 04:32:03 10° NNW 04:33:46 17° NW 04:33:46 17° NW
ATLAS CENTAUR R/B 4.2 04:34:29 10° WNW 04:36:05 12° NW 04:37:52 10° NNW
Cosmos 2360 4.3 04:35:18 42° WSW 04:37:00 59° WNW 04:42:40 10° NNE
Cosmos 1766 Rocket 4.1 04:35:59 10° NNW 04:39:52 39° W 04:39:52 39° W
Cosmos 1125 Rocket 3.3 04:38:07 10° NNW 04:43:18 72° WSW 04:47:08 18° S
DELTA 2 R/B (1) 3.6 04:42:07 39° SW 04:44:03 65° SSE 04:49:35 10° ENE
PSLV R/B 4.2 04:42:33 10° NNE 04:46:18 56° E 04:47:57 29° SSE
Cosmos 2263 Rocket 4.3 04:42:26 10° N 04:47:12 28° ENE 04:51:55 10° ESE
Abrixas 2.3 04:51:14 72° NW 04:51:31 89° SW 04:54:34 10° SE
IRS-1C Rocket 4.1 04:48:04 10° NNE 04:53:21 80° ESE 04:57:00 20° S
ADEOS II 4.4 04:49:32 10° NE 04:53:26 21° E 04:57:19 10° SE
CZ-2D R/B 2.7 04:50:28 10° N 04:55:33 42° WNW 04:57:38 29° WSW
CZ-2D R/B 3.6 04:51:54 10° N 04:56:15 67° WNW 04:58:10 32° SSW
Cosmos 1461 2.6 04:53:01 10° NNW 04:57:07 87° WSW 05:01:03 10° SSE
Cosmos 1842 Rocket 3.7 04:57:13 34° SW 04:58:56 58° W 05:03:22 10° N
UNKNOWN OBJECT B 3.3 04:56:15 10° N 04:59:52 39° WNW 05:00:35 35° WSW
CZ-4B R/B 3.4 04:54:37 10° NNE 05:00:06 68° ESE 05:04:59 13° S
Cosmos 1544 3.5 05:00:02 38° W 05:00:29 40° W 05:03:58 10° N
Cosmos 540 Rocket 4.0 04:58:42 30° WSW 05:00:40 43° WNW 05:05:37 10° N
SL-16 R/B 3.0 04:59:05 24° SSW 05:02:06 39° W 05:07:50 10° NNW
ARIANE 5 R/B 3.8 04:59:04 10° NNW 05:03:12 25° WNW 05:04:48 21° W
Cosmos 1733 3.0 05:01:58 28° S 05:03:53 86° W 05:07:42 10° N
EO 1 Del DPAF 4.1 05:07:24 29° WSW 05:07:37 30° W 05:11:03 10° NW
GEOS 3 Rocket 3.5 05:03:03 10° SSE 05:08:17 81° WSW 05:13:29 10° NW
PAYLOAD B 4.3 05:03:08 10° NNE 05:08:47 85° ESE 05:13:54 12° SSW
Cosmos 1655 Rocket 4.1 05:03:13 10° NNW 05:09:30 61° W 05:15:45 10° S
CZ-4B R/B 2.9 05:06:54 10° NNE 05:10:43 71° E 05:13:34 16° S
SWAS 4.4 05:17:19 22° SSW 05:20:02 72° WNW 05:24:21 10° NNE
BREEZE-M DEB (TANK) 4.2 05:06:44 16° SW 05:20:21 77° SE 05:24:49 10° NE
Cosmos 1953 4.3 05:20:15 14° W 05:20:38 14° WNW 05:22:46 10° NW
Okean-O 3.6 05:17:10 10° NNE 05:21:26 45° E 05:25:40 10° S
Cosmos 2026 Rocket 4.4 05:15:57 10° NNW 05:21:51 43° W 05:27:39 10° SSW
Cosmos 2151 2.9 05:18:49 10° N 05:23:09 86° W 05:27:26 10° S
Cosmos 1328 3.8 05:20:17 10° N 05:24:20 88° E 05:28:21 10° S
MOZ.5/SAFIR/RUBIN 5/SL-8 3.7 05:20:02 10° S 05:24:43 69° W 05:29:24 10° NNW
Delta 128 4.5 05:22:38 21° SW 05:24:51 33° S 05:29:03 10° ESE
Cosmos 304 Rocket 4.4 05:20:14 10° S 05:24:55 54° ESE 05:29:37 10° NNE
Resurs 1-4 Rocket 3.6 05:23:38 10° NNW 05:27:23 20° WNW 05:29:56 14° W
Meteor 2-20 4.4 05:21:17 10° N 05:27:24 84° W 05:33:30 10° S
Cosmos 2360 Rocket 2.3 05:25:27 10° SSW 05:31:02 77° ESE 05:36:41 10° NNE
Cosmos 1980 Rocket 4.1 05:28:07 10° W 05:31:09 15° NW 05:34:15 10° NNW
Thor Agena Rocket 3.4 05:26:47 10° SSE 05:31:49 83° WSW 05:36:53 10° NNW
Cosmos 1674 3.5 05:32:04 10° NNW 05:35:23 30° W 05:38:08 13° SSW
Cosmos 1538 Rocket 4.4 05:32:26 15° SW 05:36:37 47° WNW 05:41:46 10° N
Cosmos 1666 Rocket 4.5 05:34:15 10° N 05:38:31 51° E 05:42:44 10° SSE
Cosmos 923 Rocket 4.1 05:36:09 10° SSW 05:41:21 82° ESE 05:46:34 10° NNE
Cosmos 2322 Rocket 3.3 05:39:52 13° WSW 05:43:53 28° WNW 05:48:42 10° N
CZ-4B DEB 4.5 05:39:22 10° N 05:44:43 52° WNW 05:50:01 10° SSW
Meteor 1-11 4.2 05:43:25 10° N 05:49:03 80° W 05:54:44 10° S
Meteor 2-1 Rocket 4.2 05:44:29 10° SSW 05:50:07 72° W 05:55:42 10° N
ARGOS Delta rocket 4.4 05:45:57 10° N 05:50:36 40° WNW 05:55:00 10° SW
Meteor PRIRODA 4.0 05:47:00 10° NNE 05:50:41 69° E 05:54:20 10° S
Cosmos 773 Rocket 4.1 05:45:52 10° SSW 05:50:56 60° WNW 05:56:05 10° N
Cosmos 1703 4.3 05:52:07 10° N 05:56:00 50° E 05:59:51 10° SSE
Cosmos 1437 Rocket 3.5 05:53:50 10° S 05:57:32 53° E 06:01:19 10° NNE
Cosmos 2221 3.2 05:54:45 10° SW 05:58:39 35° W 06:02:37 10° NNW
Cosmos 2058 3.3 05:59:05 10° NNW 06:03:07 44° W 06:07:06 10° SSW
ADEOS Rocket 3.4 05:57:44 10° NNE 06:04:29 85° WNW 06:11:56 10° SSW
RESURS DK-1 4.0 06:02:16 10° WNW 06:04:35 15° WSW 06:06:53 10° SW
Cosmos 2228 Rocket 3.2 06:00:58 10° S 06:05:26 90° W 06:09:59 10° N
Feng Yun 1-1 Rocket 4.3 06:00:34 10° N 06:06:07 70° WNW 06:11:30 10° SSW
Milstar 3 Cent rocket 3.6 06:02:53 10° WSW 06:08:18 39° S 06:17:54 10° ESE
Okean O Rocket 3.4 06:05:52 10° NNW 06:08:30 16° WNW 06:11:08 10° WSW
Cosmos 1633 Rocket 3.1 06:04:36 10° N 06:09:02 83° W 06:13:25 10° S
GPS 2-04 Rocket1 3.6 06:06:04 10° W 06:09:30 28° SSW 06:12:47 10° SE
Cosmos 2219 Rocket 3.8 06:06:04 10° S 06:11:06 36° ESE 06:16:09 10° NE
